Regional Weather Roundup
Issued by NWS New Orleans/Baton Rouge, LA

Home | Current Version | Previous Version | Text Only | Print | Product List | Glossary Off
Versions: 1 2 3 4 5 6 7 8 9 10 11 12 13 14 15 16 17 18 19 20 21 22 23 24 25 26 27 28 29 30 31 32 33 34 35 36 37 38 39 40 41 42 43 44 45 46 47 48 49 50

609
ASUS44 KLIX 060905
RWRLIX
NEW ORLEANS REGIONAL WEATHER ROUNDUP
NATIONAL WEATHER SERVICE NEW ORLEANS LA
300 AM CST FRI MAR 06 2015

NOTE: "FAIR" INDICATES FEW OR NO CLOUDS BELOW 12,000 FEET WITH NO
      SIGNIFICANT WEATHER AND/OR OBSTRUCTIONS TO VISIBILITY.
      SKY/WX - SKY CONDITION AND SIGNIFICANT WEATHER.
      TMP - AIR TEMPERATURE.     DP    - DEWPOINT TEMPERATURE.
      RH  - RELATIVE HUMIDITY.   PRES  - PRESSURE.
      HI  - HEAT INDEX.          WCI   - WIND CHILL INDEX.

*  THESE STATIONS ARE NOT NWS OR FAA STATIONS AND ARE NOT UNDER
   NWS QUALITY CONTROL.

LAZ038-040-048-061>063-065>067-069-061000-
SOUTHEAST LOUISIANA

CITY           SKY/WX    TMP DP  RH WIND       PRES   REMARKS
N.O. AUDUBON     N/A     34  26  74 MISG        N/A
N.O. INTL ARPT PTCLDY    32  23  69 N20G25    30.44S WCI  20
N.O. LAKEFRONT PTCLDY    35  24  64 N23G30    30.45S WCI  23
SLIDELL        CLEAR     30  23  75 N16       30.43F WCI  19
BATON ROUGE    CLEAR     28  17  63 N9        30.49S WCI  19
BOOTHVILLE     PTCLDY    38  29  70 N15G25    30.37F WCI  29
BELLE CHASSE   CLEAR     34  22  61 N12G18    30.41F WCI  25
BOGALUSA*        N/A     31  23  74 N12       30.47F WCI  21
GALLIANO*      MOSUNNY   37  27  69 MISG      30.41F
NEW ROADS*       N/A     28  13  54 N12       30.51F WCI  18
GONZALES*        N/A     30  20  66 N5        30.47S WCI  25
HAMMOND*       PTCLDY    28  19  69 N10G18    30.48S WCI  19
HOUMA*         PTCLDY    31  24  74 N14       30.43S WCI  21
PORT FOURCHON* SUNNY     36  27  69 N20G30    30.42S WCI  25

$$

MSZ070-080>082-061000-
SOUTHERN MISSISSIPPI

CITY           SKY/WX    TMP DP  RH WIND       PRES   REMARKS
MCCOMB         PTCLDY    26  16  65 N12       30.47F WCI  16
GULFPORT       PTCLDY    30  18  60 N15       30.40F WCI  19
BILOXI         PTCLDY    31  20  64 N14G23    30.39F WCI  20
PASCAGOULA     PTCLDY    30  20  66 N14G26    30.39F WCI  19

$$

COASTAL OBSERVATIONS
LAKE AND NEARSHORE STATIONS

STATION/POSITION TIME  TEMP    WIND        PRES    WAVE
                       AIR SEA DIR/SP/G            HT/PER
                 (UTC) (F)     (DEG/KT/KT) (MB)    (FT/S)
PASCAGOULA       0818   31      10/ 14/ 20 1028.8
WAVELAND YACHT   0818   33 48   10/ 16/ 20 1029.8
GRAND ISLE       0818   38 59   30/ 19/ 28 1029.5
SOUTHWEST PASS   0818   42 43   10/ 21/ 24 1028.6
NEW CANAL        0818   35      20/ 20/ 23 1030.9
SHELL BEACH      0818   36 56  360/ 23/ 29 1029.6

OFFSHORE STATIONS

STATION/POSITION TIME  TEMP    WIND        PRES    WAVE
                       AIR SEA DIR/SP/G            HT/PER
                 (UTC) (F)     (DEG/KT/KT) (MB)    (FT/S)
64 S DAUPHIN ISL 0801   45 67   10/ 25/ 31 1026.7    8/ 7

$$




USA.gov is the U.S. government's official web portal to all federal, state and local government web resources and services.